DB0BGL Weather Reports


Display with metric or nautical units.
time (UTC)temp
F
wind
direction
speed
MPH
gust
MPH
rain 1hr
in
rain 24hr
in
rain mn
in
humidity
%
barometer
mb
20260906074828 63 97 1.0 8.0 0.00 0.00 0.00 50
20260906073828 61 106 1.0 5.0 0.00 0.00 0.00 54
20260906072827 60 101 1.0 9.0 0.00 0.00 0.00 58
20260906071827 58 116 4.0 12.0 0.00 0.00 0.00 62
20260906070826 56 112 3.0 6.0 0.00 0.00 0.00 69
20260906064825 53 142 3.0 8.0 0.00 0.00 0.00 72
20260906063824 53 101 3.0 10.0 0.00 0.00 0.00 75
20260906062824 53 111 1.0 10.0 0.00 0.00 0.00 76
20260906060913 54 109 5.0 9.0 0.00 0.00 0.00 70
20260906055916 54 119 4.0 13.0 0.00 0.00 0.00 68
20260906054913 54 122 3.0 12.0 0.00 0.00 0.00 70
20260906053915 53 113 1.0 10.0 0.00 0.00 0.00 72
20260906052911 52 119 1.0 12.0 0.00 0.00 0.00 75
20260906051910 51 102 1.0 14.0 0.00 0.00 0.00 78
20260906050910 49 111 4.0 13.0 0.00 0.00 0.00 85
20260906045910 48 113 3.0 11.0 0.00 0.00 0.00 85
20260905155454 52 358 2.0 26.0 0.00 0.00 0.00 83
20260905154453 52 82 15.0 20.0 0.00 0.00 0.00 79
20260905153453 51 75 11.0 20.0 0.00 0.00 0.00 85
20260905152452 51 74 8.0 23.0 0.00 0.00 0.00 88
20260905151451 51 111 5.0 22.0 0.00 0.00 0.00 92
20260905150451 50 137 7.0 24.0 0.00 0.00 0.00 90
20260905145450 49 120 11.0 27.0 0.00 0.00 0.00 95
20260905144450 48 64 9.0 20.0 0.00 0.00 0.00 99
20260905143449 48 61 5.0 19.0 0.00 0.00 0.00 100
20260905142449 48 68 1.0 12.0 0.00 0.00 0.00 100
20260905141448 49 63 0.0 9.0 0.00 0.00 0.00 100
20260905140447 49 54 10.0 10.0 0.00 0.00 0.00 100
20260905135448 50 64 0.0 7.0 0.00 0.00 0.00 100
20260905134447 51 43 0.0 0.0 0.00 0.00 0.00 100
20260905133446 51 43 0.0 0.0 0.00 0.00 0.00 100
20260905132445 51 52 0.0 6.0 0.00 0.00 0.00 100
20260905131444 51 52 0.0 5.0 0.00 0.00 0.00 100
20260905130444 51 56 4.0 7.0 0.00 0.00 0.00 99
20260905125444 53 85 0.0 1.0 0.00 0.00 0.00 96
20260905124443 54 68 0.0 7.0 0.00 0.00 0.00 92
20260905123442 56 67 1.0 5.0 0.00 0.00 0.00 85
20260905122441 57 59 0.0 0.0 0.00 0.00 0.00 100
20260905121441 57 59 0.0 0.0 0.00 0.00 0.00 81
20260905120440 57 59 0.0 4.0 0.00 0.00 0.00 80
20260905115441 57 59 3.0 20.0 0.00 0.00 0.00 67
20260905114439 56 67 5.0 20.0 0.00 0.00 0.00 69
20260905113438 56 63 5.0 12.0 0.00 0.00 0.00 78
20260905112441 56 53 0.0 7.0 0.00 0.00 0.00 69
20260905111437 56 56 2.0 8.0 0.00 0.00 0.00 78
20260905110438 57 49 1.0 10.0 0.00 0.00 0.00 68
20260905105323 57 50 3.0 16.0 0.00 0.00 0.00 65
20260905104322 56 45 2.0 21.0 0.00 0.00 0.00 66
20260905103321 56 63 6.0 21.0 0.00 0.00 0.00 65
20260905102321 56 52 14.0 23.0 0.00 0.00 0.00 65
20260905101320 56 84 9.0 24.0 0.00 0.00 0.00 65
20260905100320 56 60 13.0 24.0 0.00 0.00 0.00 100
20260905095319 57 99 8.0 25.0 0.00 0.00 0.00 64
20260905094319 57 36 11.0 20.0 0.00 0.00 0.00 64
20260905093318 56 53 7.0 21.0 0.00 0.00 0.00 100
20260905092317 54 56 5.0 17.0 0.00 0.00 0.00 75
20260905091317 53 71 6.0 32.0 0.00 0.00 0.00 76
20260905090316 52 57 10.0 21.0 0.00 0.00 0.00 81
20260905085316 52 46 5.0 23.0 0.00 0.00 0.00 74
20260905084315 54 46 5.0 28.0 0.00 0.00 0.00 73
20260905083314 55 52 12.0 37.0 0.00 0.00 0.00 70
20260905082314 54 49 8.0 32.0 0.00 0.00 0.00 72
20260905081313 51 63 7.0 28.0 0.00 0.00 0.00 82
20260905080313 49 68 6.0 21.0 0.00 0.00 0.00 99
20260905075312 48 68 4.0 17.0 0.00 0.00 0.00 100